Hourly Data Report for October 16, 2015

All times are specified in Local Standard Time (LST). Add 1 hour to adjust for Daylight Saving Time where and when it is observed.

KUGLUKTUK A
NUNAVUT

67°49'00.000" N
115°08'38.000" W
22.60 m
2300903
71938
YCO

Download Data

Hourly Data (October 2015)
Hourly Data Report for October 16, 2015
Temp Definition
°C
Dew Point Temp Definition
°C
Rel Hum Definition
%
Wind Dir Definition
10's deg

Wind Spd Definition
km/h
Visibility Definition
km
Stn Press Definition
kPa
Hmdx Definition


Wind Chill Definition


Weather Definition


TIME
00:00 Legend Double Dagger -2.4 -4.9 83 27 19 24.1 101.96   -8 LegendNANA
01:00 Legend Double Dagger -2.5 -5.3 81 27 15 24.1 102.00   -7 LegendNANA
02:00 Legend Double Dagger -2.7 -6.2 77 28 14 24.1 102.03   -8 Cloudy
03:00 Legend Double Dagger -3.9 -7.7 75 27 21 24.1 102.04   -10 LegendNANA
04:00 Legend Double Dagger -4.3 -7.8 77 25 24 24.1 102.06   -11 LegendNANA
05:00 Legend Double Dagger -5.1 -7.7 82 25 23 24.1 102.05   -12 Mostly Cloudy
06:00 Legend Double Dagger -5.7 -8.1 83 26 26 24.1 102.06   -13 LegendNANA
07:00 Legend Double Dagger -6.8 -8.9 85 26 23 24.1 102.06   -14 LegendNANA
08:00 Legend Double Dagger -6.7 -9.0 84 26 23 24.1 102.05   -14 Mainly Clear
09:00 Legend Double Dagger -6.3 -8.9 82 26 25 24.1 102.08   -14 LegendNANA
10:00 Legend Double Dagger -5.8 -9.0 78 28 19 24.1 102.09   -12 LegendNANA
11:00 Legend Double Dagger -3.9 -7.9 74 26 16 24.1 102.12   -9 Mainly Clear
12:00 Legend Double Dagger -3.5 -8.2 70 27 26 24.1 102.09   -11 LegendNANA
13:00 Legend Double Dagger -3.0 -7.9 69 29 23 24.1 102.09   -9 LegendNANA
14:00 Legend Double Dagger -2.9 -7.6 70 28 17 24.1 102.11   -8 Mostly Cloudy
15:00 Legend Double Dagger -3.4 -7.8 72 30 17 24.1 102.12   -9 LegendNANA
16:00 Legend Double Dagger -3.6 -7.4 75 30 17 24.1 102.10   -9 LegendNANA
17:00 Legend Double Dagger -4.2 -7.5 78 32 12 24.1 102.08   -9 Cloudy
18:00 Legend Double Dagger -4.6 -6.6 86 26 8 24.1 102.06   -8 LegendNANA
19:00 Legend Double Dagger -5.1 -6.9 87 25 12 24.1 102.04   -10 Freezing Drizzle
20:00 Legend Double Dagger -5.6 -7.4 87 23 10 19.3 102.00   -10 Freezing Drizzle
21:00 Legend Double Dagger -5.8 -7.5 88 21 5 24.1 101.98   -8 LegendNANA
22:00 Legend Double Dagger -8.0 -9.4 90 21 11 24.1 101.95   -13 LegendNANA
23:00 Legend Double Dagger -8.8 -9.9 92 21 10 24.1 101.95   -14 Mainly Clear

Notes on Data Quality.

Legend

  • E = Estimated
  • M = Missing
  • NA = Not Available
  • ‡ = Partner data that is not subject to review by the National Climate Archives
Date modified: